カタログに戻る

STARLINK-5588

運用中通信VLEO
NORAD 55375·PAYLOAD·🇺🇸 United States

打ち上げ Jan 26, 2023 から Cape Canaveral Space Force Station

Loading…

次のパス (今後24時間)

TLE

最新Source: CelesTrak SupGP

元期: Sep 15, 2026, 01:33 UTC

1 55375C 23013AW  26258.06506944  .00021713  00000+0  78654-3 0  2585
2 55375  43.0027 332.0082 0001408 263.9173 183.9069 15.27563965    11

AllMySatでSTARLINK-5588をリアルタイム追跡

Download on the App Store